DELTA 1 DEB, 21367

Orbit data source: Space-Track

DELTA 1 DEB, 21367 is space debris in SSO originally from a launch on Thu, 12 Jun 1975 UTC launched from the Air Force Western Test Range (AFWTR). Debris objects in space refer to the collection of defunct objects orbiting the Earth. Examples of debris include non-operational satellites, rocket bodies, and fragments generated from explosions, collisions, or faulty payload assembly.

Loading next visibility...
Identifier
21367, 1975-052CM
Orbit
SSO
Country
Flag of USUS
Related business
Manufacturer
Unknown
Mission
Spacecraft
Bus & Motor
Unknown
Mass
Unknown
Launch date (UTC)
1975-06-12 (51 years ago)
Launch vehicle
Unknown
Launch site
Air Force Western Test Range (AFWTR)
Object type
Payload
Rocket body
Debris
Shape & HBR
Unknown shape, 0.3 m
Radar Cross Section
Small (<0.1 m²)

Expand to show TLE details & history
Last TLE update: 6 hours ago

TLE from 6 hours ago
0 DELTA 1 DEB
1 21367U 75052CM  25354.15882808  .00000062  00000-0  21408-3 0  9993
2 21367  99.8280  68.7445 0073972  59.6710 329.7357 13.31394009678962
Epoch: 2025-12-20T03:48Z
TLE epoch observation values (Epoch: 2025-12-20T03:48:42.746Z)
Latitude
28.55622°
Longitude
-82.80518°
Altitude
1,096.955 km
Speed
7.33 km/s
True Right ascension
04h 13m 27s
True Declination
28° 25' 07"
Sunlit
Object was in full shadow at epoch
Visualization orbit readout
Latitude
Unknown
Longitude
Unknown
Altitude
Unknown
Speed
Unknown
Apparent Right ascension
Unknown
Apparent Declination
Unknown
Sunlit
N/A
Visualization observer readout
Local Sidereal Time
08:52:38
Azimuth
Unknown
Elevation
Unknown
Doppler factor
Unknown
Orbital elements
Apogee altitude
1,194.447 km
Perigee altitude
1,083.238 km
Semi-major axis
7,516.979 km
Eccentricity
0.0074
Inclination
99.828°
RAAN
68.7445°
Arg. of periapsis
59.671°
True anomaly
329.30506°
Mean anomaly
329.7357°
Eccentric anomaly
329.52072°
Mean motion
3.33026 °/min
Orbital period
108.1 mins
BSTAR
0.00021408
Loading maneuver chart data...
Computing Atmospheric mass density...
Loading historical data...
Loading historical data...
Loading historical data...
Loading historical data...
Loading historical data...
Loading historical data...
Loading historical data...

Documentation

Showing up to 5 results
|